Flag for Canada Weather past 2 weeks in Ottawa, Ontario, Canada

Now
66 °F

Scattered clouds.


Feels Like: 66 °F
Forecast: 49 / 65 °F
Wind: 8 mph from Northeast

Location: Ottawa Int'L. Ont.

Current Time: Oct 1, 2014 at 2:53:11 PM

Latest Report: Oct 1, 2014 at 2:00 PM


Visibility: 15 mi

Pressure: 30.12 "Hg

Humidity: 64%

Dew point: 54 °F

Location of OttawaLocation

Historic Weather in Ottawa — Graph

°F

Ottawa temperature yesterday

Maximum temperature yesterday: 59 °F (at 4:00 PM)
Minimum temperature yesterday: 46 °F (at 4:00 AM)
Average temperature yesterday: 52 °F

Past Weeks' High & Low Weather Summary

 TemperatureHumidityPressure
High81 °F (Sep 27, 4:00 PM)100% (Sep 17, 6:00 AM)30.57 "Hg (Sep 17, 6:00 AM)
Low34 °F (Sep 19, 5:00 AM)37% (Sep 28, 3:00 PM)29.46 "Hg (Sep 21, 5:00 PM)
Average56 °F80%30.10 "Hg
* Reported Sep 16 1:00 PM — Oct 1 1:00 PM, Ottawa, Weather by CustomWeather, © 2014

Note: Actual official high and low records may vary slightly from our data, if they occured in-between our weather recording intervals... More about our weather records

Advertising

Ottawa weather history for previous 24 hours

 ConditionsComfort  
Time TempWeatherWind HumidityBarometerVisibility
1:00 PM
Oct 1
64 °FScattered clouds.3 mph68%30.14 "Hg15 mi
12:00 PM61 °FPartly sunny.8 mph72%30.16 "Hg15 mi
11:00 AM57 °FOvercast.8 mph82%30.17 "Hg15 mi
10:00 AM55 °FOvercast.8 mph88%30.18 "Hg15 mi
9:00 AM54 °FOvercast.8 mph94%30.16 "Hg10 mi
8:00 AM54 °FMostly cloudy.7 mph88%30.15 "Hg10 mi
7:00 AM52 °FMostly cloudy.7 mph94%30.13 "Hg10 mi
6:00 AM52 °FLow clouds.6 mph94%30.11 "Hg10 mi
5:00 AM52 °FLow clouds.6 mph94%30.10 "Hg10 mi
4:00 AM52 °FMostly cloudy.5 mph94%30.09 "Hg10 mi
3:00 AM52 °FOvercast.7 mph94%30.09 "Hg10 mi
2:00 AM52 °FOvercast.8 mph94%30.09 "Hg10 mi
1:00 AM52 °FMostly cloudy.9 mph94%30.09 "Hg15 mi
12:00 AM52 °FPassing clouds.10 mph100%30.09 "Hg15 mi
11:00 PM
Sep 30
54 °FPassing clouds.12 mph94%30.08 "Hg15 mi
10:00 PM54 °FPassing clouds.6 mph100%30.07 "Hg15 mi
9:00 PM55 °FPassing clouds.5 mph88%30.06 "Hg15 mi
8:00 PM54 °FPassing clouds.2 mph94%30.04 "Hg15 mi
7:00 PM57 °FPassing clouds.2 mph88%30.02 "Hg15 mi
6:00 PM59 °FPassing clouds.5 mph82%30.00 "Hg15 mi
5:00 PM59 °FScattered clouds.6 mph82%29.99 "Hg15 mi
4:00 PM59 °FOvercast.8 mph82%30.00 "Hg10 mi
3:00 PM57 °FLow clouds.8 mph82%30.00 "Hg10 mi
2:00 PM55 °FLow clouds.12 mph88%30.00 "Hg10 mi
Weather by CustomWeather, © 2014

See weather overviewHow to use our weather pages